FLOCK 4E'-2 (46820 NORAD) Tracking and Keplerian Element Data

This shows tracking and keplerian element data for the satellite.

Feedback or suggestion? Click here.




ElementValue
Catalog46820
NameFLOCK 4E'-2
Epoch Orbit379
Epoch Day327.94507196
Epoch Year2020
RAAN28.1609
Inclination97.5013
Eccentricity0.0013835
Argument of Perigee203.7317
Mean Anonmoly329.4753
Mean Motion15.17286354
Decay Rate8.33E-06
L11 46820U 20077H 20327.94507196 .00000833 00000-0 45149-4 0 9992
L22 46820 97.5013 28.1609 0013835 203.7317 329.4753 15.17286354 3790

Live tracking and technical data element details for FLOCK 4E'-2 (NORAD 46820). FLOCK 4E'-2 can be tracked NOW for your location showing map with azimuth and elevation plus other details from your city location.

Track the satellite on the map from your city or location and see movement details for azimuth, elevation, latitude, longitude, range, height, and movement on the map or in text.







IsCatalogInMostPopularTable: catalog: 46820, numindb: 8
Update: records affected: 1



GetName: 46820 FLOCK 4E'-2

Hit Count: updated at: Tue, 24 Nov 2020 12:07:32 GMT